Terminal Aerodrome Forecast
Issued by NWS

Home | Current Version | Previous Version | Graphics & Text | Print | Product List | Glossary On
Versions: 1 2 3 4 5 6 7 8 9 10 11 12 13 14 15 16 17 18 19 20 21
000
FTUS43 KMPX 191700
TAFRWF
TAF
KRWF 191738Z 1918/2018 22012KT P6SM BKN035
     FM200000 20008KT P6SM SCT040 BKN200
     FM200400 17008KT P6SM SCT080 BKN200
     FM201200 18013G20KT P6SM SCT070 BKN150=

USA.gov is the U.S. government's official web portal to all federal, state and local government web resources and services.